When you browse on this site, cookies collect data to enhance your experience and personalize the content and advertising you see.
Visit our Privacy Policy to learn more. By continuing to use the site, you agree to this use of cookies and data.
  • en Belgique
  • Liste des pays
  • À 7 jours
  • Température de l'eau
  • Carte satellitaire
  • Carte météo
  • Widgets météo
  • user-avatar
    Se connecter

    Météo par heure à Beersel

    Ce jour, 23 Février, Samedi

    Heure Température Précipitation Vent Pression Humidité
    00:00 +7°C° 0 mm 3 m/s 771 mmHg 91%
    01:00 +7°C° 0 mm 3 m/s 770 mmHg 90%
    02:00 +7°C° 0 mm 3 m/s 770 mmHg 90%
    03:00 +6°C° 0 mm 2 m/s 770 mmHg 89%
    04:00 +6°C° 0 mm 2 m/s 770 mmHg 89%
    05:00 +6°C° 0 mm 2 m/s 770 mmHg 89%
    06:00 +5°C° 0 mm 2 m/s 770 mmHg 89%
    07:00 +6°C° 0 mm 2 m/s 770 mmHg 85%
    08:00 +7°C° 0 mm 3 m/s 770 mmHg 81%
    09:00 +8°C° 0 mm 3 m/s 770 mmHg 76%
    10:00 +9°C° 0 mm 3 m/s 770 mmHg 69%
    11:00 +11°C° 0 mm 3 m/s 770 mmHg 62%
    12:00 +12°C° 0 mm 3 m/s 770 mmHg 56%
    13:00 +13°C° 0 mm 3 m/s 770 mmHg 53%
    14:00 +13°C° 0 mm 3 m/s 770 mmHg 50%
    15:00 +15°C° 0 mm 2 m/s 770 mmHg 47%
    16:00 +13°C° 0 mm 2 m/s 770 mmHg 51%
    17:00 +12°C° 0 mm 2 m/s 770 mmHg 54%
    18:00 +9°C° 0 mm 2 m/s 770 mmHg 57%
    19:00 +8°C° 0 mm 2 m/s 770 mmHg 57%
    20:00 +7°C° 0 mm 3 m/s 770 mmHg 56%
    21:00 +7°C° 0 mm 3 m/s 770 mmHg 55%
    22:00 +6°C° 0 mm 2 m/s 771 mmHg 53%
    23:00 +6°C° 0 mm 2 m/s 771 mmHg 51%

    Demain, 24 Février, Dimanche

    Heure Température Précipitation Vent Pression Humidité
    00:00 +5°C° 0 mm 2 m/s 771 mmHg 48%
    01:00 +5°C° 0 mm 2 m/s 771 mmHg 47%
    02:00 +4°C° 0 mm 2 m/s 770 mmHg 46%
    03:00 +5°C° 0 mm 1 m/s 770 mmHg 45%
    04:00 +4°C° 0 mm 2 m/s 771 mmHg 44%
    05:00 +4°C° 0 mm 2 m/s 771 mmHg 42%
    06:00 +4°C° 0 mm 2 m/s 771 mmHg 41%
    07:00 +5°C° 0 mm 2 m/s 771 mmHg 40%
    08:00 +6°C° 0 mm 2 m/s 771 mmHg 40%
    09:00 +7°C° 0 mm 2 m/s 771 mmHg 39%
    10:00 +9°C° 0 mm 2 m/s 771 mmHg 36%
    11:00 +12°C° 0 mm 2 m/s 771 mmHg 34%
    12:00 +13°C° 0 mm 2 m/s 772 mmHg 31%
    13:00 +14°C° 0 mm 2 m/s 771 mmHg 34%
    14:00 +14°C° 0 mm 2 m/s 771 mmHg 36%
    15:00 +15°C° 0 mm 2 m/s 771 mmHg 38%
    16:00 +13°C° 0 mm 2 m/s 771 mmHg 42%
    17:00 +12°C° 0 mm 2 m/s 771 mmHg 47%
    18:00 +9°C° 0 mm 2 m/s 771 mmHg 51%
    19:00 +9°C° 0 mm 2 m/s 771 mmHg 53%
    20:00 +8°C° 0 mm 2 m/s 772 mmHg 55%
    21:00 +8°C° 0 mm 2 m/s 772 mmHg 57%
    22:00 +8°C° 0 mm 2 m/s 772 mmHg 55%
    23:00 +7°C° 0 mm 2 m/s 772 mmHg 54%

    Après-demain, 25 Février, Lundi

    Heure Température Précipitation Vent Pression Humidité
    00:00 +7°C° 0 mm 2 m/s 772 mmHg 52%
    01:00 +7°C° 0 mm 2 m/s 772 mmHg 51%
    02:00 +7°C° 0 mm 2 m/s 772 mmHg 50%
    03:00 +7°C° 0 mm 2 m/s 772 mmHg 48%
    04:00 +7°C° 0 mm 1 m/s 772 mmHg 49%
    05:00 +7°C° 0 mm 1 m/s 772 mmHg 49%
    06:00 +7°C° 0 mm 1 m/s 772 mmHg 50%
    07:00 +8°C° 0 mm 1 m/s 772 mmHg 50%
    08:00 +8°C° 0 mm 2 m/s 772 mmHg 49%
    09:00 +9°C° 0 mm 2 m/s 772 mmHg 49%
    10:00 +12°C° 0 mm 2 m/s 772 mmHg 47%
    11:00 +14°C° 0 mm 2 m/s 772 mmHg 45%
    12:00 +16°C° 0 mm 2 m/s 772 mmHg 43%
    13:00 +16°C° 0 mm 2 m/s 771 mmHg 45%
    14:00 +17°C° 0 mm 2 m/s 771 mmHg 46%
    15:00 +18°C° 0 mm 1 m/s 771 mmHg 47%
    16:00 +16°C° 0 mm 2 m/s 771 mmHg 52%
    17:00 +14°C° 0 mm 2 m/s 771 mmHg 57%
    18:00 +12°C° 0 mm 2 m/s 771 mmHg 62%
    19:00 +12°C° 0 mm 2 m/s 771 mmHg 64%
    20:00 +10°C° 0 mm 2 m/s 771 mmHg 67%
    21:00 +10°C° 0 mm 2 m/s 771 mmHg 69%
    22:00 +9°C° 0 mm 2 m/s 771 mmHg 70%
    23:00 +9°C° 0 mm 2 m/s 771 mmHg 71%

    26 Février, Mardi

    Heure Température Précipitation Vent Pression Humidité
    00:00 +9°C° 0 mm 2 m/s 771 mmHg 72%
    01:00 +8°C° 0 mm 2 m/s 770 mmHg 69%
    02:00 +8°C° 0 mm 2 m/s 770 mmHg 67%
    03:00 +8°C° 0 mm 2 m/s 770 mmHg 64%
    04:00 +7°C° 0 mm 2 m/s 770 mmHg 64%
    05:00 +8°C° 0 mm 1 m/s 770 mmHg 63%
    06:00 +8°C° 0 mm 1 m/s 770 mmHg 63%
    07:00 +9°C° 0 mm 1 m/s 770 mmHg 61%
    08:00 +10°C° 0 mm 1 m/s 770 mmHg 58%
    09:00 +12°C° 0 mm 1 m/s 770 mmHg 56%
    10:00 +13°C° 0 mm 2 m/s 770 mmHg 51%
    11:00 +15°C° 0 mm 2 m/s 770 mmHg 47%
    12:00 +17°C° 0 mm 2 m/s 770 mmHg 43%
    13:00 +17°C° 0 mm 2 m/s 769 mmHg 44%
    14:00 +18°C° 0 mm 2 m/s 769 mmHg 44%
    15:00 +18°C° 0 mm 2 m/s 768 mmHg 45%
    16:00 +16°C° 0 mm 2 m/s 768 mmHg 50%
    17:00 +15°C° 0 mm 2 m/s 768 mmHg 56%
    18:00 +13°C° 0 mm 2 m/s 768 mmHg 61%
    19:00 +12°C° 0 mm 2 m/s 768 mmHg 64%
    20:00 +12°C° 0 mm 2 m/s 768 mmHg 66%
    21:00 +10°C° 0 mm 2 m/s 768 mmHg 68%
    22:00 +9°C° 0 mm 2 m/s 768 mmHg 68%
    23:00 +9°C° 0 mm 2 m/s 768 mmHg 68%

    27 Février, Mercredi

    Heure Température Précipitation Vent Pression Humidité
    00:00 +8°C° 0 mm 2 m/s 768 mmHg 67%
    01:00 +8°C° 0 mm 2 m/s 767 mmHg 68%
    02:00 +7°C° 0 mm 2 m/s 767 mmHg 68%
    03:00 +7°C° 0 mm 2 m/s 767 mmHg 69%
    04:00 +7°C° 0 mm 2 m/s 767 mmHg 68%
    05:00 +6°C° 0 mm 2 m/s 766 mmHg 68%
    06:00 +6°C° 0 mm 2 m/s 766 mmHg 68%
    07:00 +7°C° 0 mm 2 m/s 766 mmHg 65%
    08:00 +9°C° 0 mm 2 m/s 766 mmHg 62%
    09:00 +10°C° 0 mm 2 m/s 766 mmHg 59%
    10:00 +13°C° 0 mm 2 m/s 766 mmHg 55%
    11:00 +14°C° 0 mm 2 m/s 765 mmHg 51%
    12:00 +16°C° 0 mm 2 m/s 765 mmHg 47%
    13:00 +16°C° 0 mm 2 m/s 765 mmHg 47%
    14:00 +17°C° 0 mm 2 m/s 764 mmHg 47%
    15:00 +17°C° 0 mm 2 m/s 764 mmHg 48%
    16:00 +16°C° 0 mm 2 m/s 763 mmHg 54%
    17:00 +14°C° 0 mm 2 m/s 763 mmHg 61%
    18:00 +12°C° 0 mm 2 m/s 763 mmHg 67%
    19:00 +12°C° 0 mm 2 m/s 763 mmHg 69%
    20:00 +10°C° 0 mm 2 m/s 763 mmHg 71%
    21:00 +9°C° 0 mm 2 m/s 763 mmHg 73%
    22:00 +9°C° 0 mm 2 m/s 763 mmHg 74%
    23:00 +9°C° 0 mm 2 m/s 763 mmHg 75%

    28 Février, Jeudi

    Heure Température Précipitation Vent Pression Humidité
    00:00 +8°C° 0 mm 2 m/s 763 mmHg 76%
    01:00 +8°C° 0 mm 3 m/s 763 mmHg 79%
    02:00 +8°C° 0 mm 3 m/s 762 mmHg 82%
    03:00 +7°C° 0 mm 3 m/s 762 mmHg 84%
    04:00 +7°C° 0 mm 3 m/s 762 mmHg 86%
    05:00 +7°C° 0 mm 3 m/s 762 mmHg 87%
    06:00 +7°C° 0 mm 3 m/s 762 mmHg 89%
    07:00 +8°C° 0 mm 3 m/s 762 mmHg 86%
    08:00 +9°C° 0 mm 3 m/s 762 mmHg 82%
    09:00 +10°C° 0 mm 3 m/s 762 mmHg 79%
    10:00 +11°C° 0 mm 3 m/s 762 mmHg 75%
    11:00 +13°C° 0 mm 3 m/s 762 mmHg 70%
    12:00 +14°C° 0 mm 4 m/s 762 mmHg 65%
    13:00 +15°C° 0 mm 4 m/s 762 mmHg 63%
    14:00 +15°C° 0 mm 4 m/s 761 mmHg 61%
    15:00 +15°C° 0 mm 4 m/s 761 mmHg 59%
    16:00 +13°C° 0 mm 3 m/s 761 mmHg 66%
    17:00 +12°C° 0 mm 3 m/s 761 mmHg 72%
    18:00 +10°C° 0 mm 2 m/s 761 mmHg 79%
    19:00 +10°C° 0 mm 2 m/s 761 mmHg 82%
    20:00 +9°C° 0 mm 2 m/s 762 mmHg 85%
    21:00 +9°C° 0 mm 1 m/s 762 mmHg 87%
    22:00 +9°C° 0 mm 1 m/s 762 mmHg 89%
    23:00 +9°C° 0 mm 1 m/s 762 mmHg 90%
    Voir plus